[[{"header":{"parameterUnit":"m.s-1","parameterCategory":1,"la1":30.2992,"la2":30.254,"lo1":-89.0895,"lo2":-89.0443,"dy":0.0025,"dx":0.0025,"nx":19,"ny":19,"refTime":"2026-03-07T03:00:00:Z","depth":0,"parameterNumber":2,"parameterNumberName":"U-component_of_WINDS"},"data":[0,0,0,-0.363,-0.363,-0.3585,-0.3584,-0.3545,-0.3545,0,0,0,0,0,0,0,0,0,0,0,-0.3656,-0.3656,-0.363,-0.363,-0.3585,-0.3584,-0.3545,-0.3545,0,0,0,0,0,0,0,0,0,0,0,-0.3656,-0.3656,-0.3656,-0.3629,-0.3585,-0.3584,-0.3546,-0.3573,0,0,0,0,0,0,0,0,0,0,-0.3613,-0.3649,-0.3656,-0.3656,-0.3629,-0.3585,-0.3584,-0.3574,-0.3571,-0.3574,0,-0.3581,0,-0.3562,-0.3544,-0.3544,0,0,0,-0.3621,-0.3651,-0.3628,-0.3656,-0.3629,-0.3585,-0.3602,-0.3572,-0.3569,-0.3571,-0.358,-0.3578,-0.3562,-0.3544,-0.3544,-0.3593,-0.3593,0,0,-0.3623,-0.3654,-0.363,-0.3627,-0.3635,-0.3604,-0.3601,-0.357,-0.3582,-0.358,-0.3577,-0.3561,-0.3544,-0.3544,-0.3592,-0.3593,0,0,0,-0.3636,-0.3657,-0.3633,-0.3629,-0.3619,-0.3603,-0.36,-0.3583,-0.3573,-0.3576,-0.3561,-0.3544,-0.3543,-0.3591,-0.3592,-0.3655,0,0,0,-0.3637,-0.3664,-0.3635,-0.3654,-0.362,-0.3601,-0.3614,-0.3575,-0.3571,-0.3561,-0.3544,-0.3543,-0.359,-0.3592,-0.3652,-0.3681,0,0,0,-0.3655,-0.3666,-0.3664,-0.3656,-0.3637,-0.3601,-0.3588,-0.3574,-0.3562,-0.3544,-0.3543,-0.359,-0.3592,-0.3649,-0.3675,-0.3703,0,0,0,-0.3682,-0.3721,-0.3665,-0.3702,-0.3638,-0.364,-0.3588,-0.3588,-0.358,-0.3543,-0.3591,-0.3592,-0.3648,-0.3672,-0.37,-0.3732,-0.3748,0,0,-0.3748,-0.373,-0.3749,-0.3698,-0.3718,-0.3644,-0.3673,-0.3636,-0.3605,-0.3598,-0.3599,-0.3653,-0.3675,-0.3702,-0.3826,-0.3839,0,0,0,-0.378,-0.3795,-0.3793,-0.3787,-0.3759,-0.3738,-0.3693,-0.3679,-0.3671,-0.3608,-0.3669,-0.3681,-0.3695,-0.3709,-0.372,-0.3731,-0.36,-0.36,-0.3599,-0.392,-0.3878,-0.3907,-0.386,-0.3854,-0.3807,-0.3798,-0.3771,-0.3731,-0.3746,-0.3744,-0.3824,-0.3842,-0.385,-0.3861,-0.3757,-0.3757,-0.3757,-0.3757,-0.4014,-0.4028,-0.3972,-0.398,-0.3935,-0.3941,-0.3896,-0.3867,-0.3866,-0.3822,-0.3833,-0.379,-0.3866,-0.3873,-0.3762,-0.3761,-0.376,-0.376,-0.376,-0.4102,-0.4101,-0.4083,-0.4068,-0.4062,-0.4011,-0.4013,-0.3971,-0.3933,-0.3943,-0.3936,-0.3935,-0.3929,-0.3943,-0.3943,-0.3943,-0.3943,-0.3944,-0.3944,-0.4201,-0.4178,-0.4184,-0.4157,-0.4147,-0.4128,-0.4079,-0.4068,-0.4044,-0.4014,-0.4014,-0.3973,-0.388,-0.3859,-0.3948,-0.3947,-0.3947,-0.3946,-0.3946,-0.4314,-0.4281,-0.4291,-0.4281,-0.4244,-0.424,-0.4186,-0.4166,-0.4151,-0.4152,-0.4107,-0.4046,-0.4024,-0.4015,-0.3997,-0.4116,-0.4116,-0.4116,-0.4116,-0.4389,-0.4373,-0.4373,-0.4359,-0.434,-0.4292,-0.4304,-0.4265,-0.422,-0.4208,-0.4184,-0.4156,-0.4148,-0.4131,-0.4119,-0.4101,-0.4245,-0.4245,-0.4245,-0.4456,-0.4436,-0.4454,-0.441,-0.4377,-0.435,-0.4359,-0.4345,-0.4287,-0.425,-0.4197,-0.4192,-0.4145,-0.4132,-0.4096,-0.4079,-0.4046,0,0]},{"header":{"parameterUnit":"m.s-1","parameterCategory":1,"la1":30.2992,"la2":30.254,"lo1":-89.0895,"lo2":-89.0443,"dy":0.0025,"dx":0.0025,"nx":19,"ny":19,"refTime":"2026-03-07T03:00:00:Z","depth":0,"parameterNumber":3,"parameterNumberName":"V-component_of_WINDS"},"data":[0,0,0,-0.6662,-0.6658,-0.6463,-0.6462,-0.6223,-0.6222,0,0,0,0,0,0,0,0,0,0,0,-0.6729,-0.6728,-0.6662,-0.6658,-0.6463,-0.6462,-0.6224,-0.6222,0,0,0,0,0,0,0,0,0,0,0,-0.673,-0.6728,-0.6727,-0.6657,-0.6463,-0.6462,-0.6224,-0.6367,0,0,0,0,0,0,0,0,0,0,-0.6554,-0.6626,-0.6728,-0.6726,-0.6656,-0.6464,-0.6462,-0.6373,-0.6358,-0.6317,0,-0.6287,0,-0.6251,-0.6207,-0.6206,0,0,0,-0.6649,-0.6639,-0.6578,-0.6726,-0.6654,-0.6464,-0.6549,-0.6364,-0.6347,-0.6297,-0.6283,-0.6274,-0.6247,-0.6205,-0.6204,-0.6006,-0.6005,0,0,-0.666,-0.6698,-0.6591,-0.6567,-0.6602,-0.6555,-0.6543,-0.6354,-0.634,-0.6282,-0.6268,-0.6243,-0.6204,-0.6202,-0.6006,-0.6005,0,0,0,-0.6696,-0.6706,-0.665,-0.6578,-0.6542,-0.6549,-0.6535,-0.6348,-0.6327,-0.6265,-0.624,-0.6202,-0.62,-0.6007,-0.6006,-0.6017,0,0,0,-0.6702,-0.6727,-0.6655,-0.6676,-0.6546,-0.6443,-0.6535,-0.634,-0.6318,-0.6241,-0.6202,-0.6197,-0.6007,-0.6006,-0.6018,-0.6015,0,0,0,-0.6738,-0.6731,-0.6707,-0.6678,-0.6597,-0.6446,-0.6413,-0.6334,-0.6302,-0.6206,-0.6197,-0.6008,-0.6006,-0.6019,-0.6016,-0.5973,0,0,0,-0.6786,-0.6718,-0.6708,-0.6621,-0.6599,-0.6456,-0.6414,-0.6305,-0.6223,-0.6201,-0.6007,-0.6006,-0.6019,-0.6016,-0.5974,-0.5943,-0.5934,0,0,-0.672,-0.6711,-0.6657,-0.6642,-0.6512,-0.6482,-0.6351,-0.6238,-0.6192,-0.607,-0.6064,-0.6018,-0.6016,-0.5973,-0.5875,-0.5869,0,0,0,-0.6649,-0.661,-0.6567,-0.6493,-0.6409,-0.6334,-0.6239,-0.6197,-0.6091,-0.6139,-0.599,-0.5988,-0.5961,-0.5944,-0.5939,-0.5912,-0.6001,-0.6001,-0.6001,-0.6608,-0.6556,-0.6463,-0.6389,-0.6317,-0.622,-0.6156,-0.6083,-0.6049,-0.6015,-0.5978,-0.5925,-0.5907,-0.5902,-0.5876,-0.5959,-0.5959,-0.5959,-0.5959,-0.6505,-0.6442,-0.6402,-0.6298,-0.6243,-0.6153,-0.6056,-0.6036,-0.5942,-0.5949,-0.5922,-0.5933,-0.5897,-0.5871,-0.5959,-0.5959,-0.5959,-0.5959,-0.5959,-0.6471,-0.6432,-0.6385,-0.6274,-0.6193,-0.6119,-0.6032,-0.5984,-0.5938,-0.5913,-0.5867,-0.5866,-0.5858,-0.5895,-0.5895,-0.5894,-0.5894,-0.5894,-0.5894,-0.6453,-0.64,-0.6335,-0.6241,-0.6187,-0.6111,-0.6014,-0.5959,-0.5885,-0.5857,-0.5856,-0.5825,-0.5905,-0.5925,-0.5891,-0.5891,-0.5892,-0.5892,-0.5892,-0.6364,-0.6378,-0.6276,-0.6223,-0.6109,-0.6031,-0.5973,-0.5865,-0.5813,-0.5771,-0.5746,-0.5814,-0.5799,-0.5803,-0.5819,-0.5759,-0.5759,-0.5759,-0.5759,-0.6334,-0.6324,-0.621,-0.6128,-0.6043,-0.5981,-0.5864,-0.5789,-0.5711,-0.5675,-0.5677,-0.5695,-0.5701,-0.5682,-0.5689,-0.5703,-0.5615,-0.5615,-0.5615,-0.6276,-0.6255,-0.6167,-0.6096,-0.6003,-0.5924,-0.5813,-0.5717,-0.5632,-0.5608,-0.5645,-0.5651,-0.5679,-0.5692,-0.5666,-0.5677,-0.5702,0,0]}]]